Regional Weather Roundup
Issued by NWS

Home | Current Version | Previous Version | Text Only | Print | Product List | Glossary Off
Versions: 1 2 3 4 5 6 7 8 9 10 11 12 13 14 15 16 17 18 19 20 21 22 23 24 25 26 27 28 29 30 31 32 33 34 35 36 37 38 39 40 41 42 43 44 45 46 47 48 49 50

000
ASUS43 KLOT 281508
RWRIL

ILLINOIS REGIONAL WEATHER ROUNDUP
NATIONAL WEATHER SERVICE CHICAGO/ROMEOVILLE IL
1000 AM CDT TUE MAR 28 2017

NOTE: "FAIR" INDICATES FEW OR NO CLOUDS BELOW 12,000 FEET WITH NO
SIGNIFICANT WEATHER AND/OR OBSTRUCTIONS TO VISIBILITY.

* THESE STATIONS ARE NOT UNDER NWS QUALITY CONTROL. THEY ALSO MAY NOT
  REPORT WEATHER SUCH AS PRECIPITATION OR FOG.

ILZ001-002-007-009-015-016-024-281600-
NORTHWEST ILLINOIS

CITY           SKY/WX    TMP DP  RH WIND       PRES   REMARKS
MOLINE         LGT RAIN  47  44  90 E17       30.10S FOG
STERLING*      CLOUDY    47  42  83 NE7       30.13R
SAVANNA*       CLOUDY    46  42  86 NE9       30.13R FOG
$$

ILZ003-004-008-010-011-017-018-281600-
NORTH CENTRAL ILLINOIS

CITY           SKY/WX    TMP DP  RH WIND       PRES   REMARKS
ROCKFORD       CLOUDY    44  37  76 NE14      30.15R
FREEPORT*      CLOUDY    41  39  92 NE13      30.14S
ROCHELLE*      CLOUDY    43  39  88 NE10      30.12S
DE KALB*       CLOUDY    42  39  87 NE9       30.13R
PERU*          CLOUDY    43  39  86 NE7       30.12R
$$

ILZ005-006-012>014-019>023-281600-
NORTHEAST ILLINOIS

CITY           SKY/WX    TMP DP  RH WIND       PRES   REMARKS
CHICAGO-OHARE  CLOUDY    43  37  79 NE12      30.11R
CHICAGO-MIDWAY CLOUDY    43  37  79 N12G22    30.12R
AURORA         CLOUDY    45  38  76 NE13      30.12R
LANSING*       CLOUDY    40  38  93 N8        30.11R
JOLIET*        CLOUDY    45  39  79 N7        30.12R
WAUKEGAN       CLOUDY    41  37  86 N10G20    30.11R
DUPAGE AIRPORT CLOUDY    42  39  89 NE8       30.11R
KANKAKEE*      CLOUDY    44  39  81 N9        30.11R
WHEELING       CLOUDY    41  38  89 N10       30.13R
MORRIS*        CLOUDY    44  38  78 CALM      30.11R
ROMEOVILLE*    CLOUDY    43  39  88 NE12      30.11R
NORTHERLY ISL    N/A     39  36  89 N13         N/A  WCI  31
$$

LMZ740>746-281600-
SOUTHERN LAKE MICHIGAN

STATION/POSITION SKY/WX   TEMP    WIND        PRES    VSBY  WAVE
                          AIR SEA DIR/SP/G                  HT/PER
                          (F)     (DEG/KT/KT) (MB)    (MI)  (FT/S)
HARRISON CRIB              39     350/ 12/ 14   N/A
BURNHAM HARBOR             40     350/ 10/ 14   N/A
CALUMET HARBOR             39     340/ 12/ 15 1018.9R
BURNS HARBOR               38     360/  9/ 11 1019.6R
MICHIGAN CITY              38     360/ 15/ 17   N/A
$$

ILZ025>027-034>036-040-047-049-050-058-095>099-281600-
WEST-CENTRAL ILLINOIS

CITY           SKY/WX    TMP DP  RH WIND       PRES   REMARKS
QUINCY         CLOUDY    51  48  89 NE7       30.08R
GALESBURG*     CLOUDY    48  47  96 E5        30.10R FOG
MACOMB*        CLOUDY    48  47  97 E8        30.12R FOG
JACKSONVILLE*  CLOUDY    50  49  95 NE5       30.10R FOG
PITTSFIELD*    CLOUDY    52  49  89 NE6       30.09S
$$

ILZ028>032-037-038-041>044-048-051>054-059>061-281600-
CENTRAL ILLINOIS

CITY           SKY/WX    TMP DP  RH WIND       PRES   REMARKS
PONTIAC        CLOUDY    45  42  88 N8        30.12R
BLOOMINGTON    CLOUDY    45  41  86 NE10      30.10R
DECATUR        CLOUDY    48  41  76 N7        30.09R
PEORIA         CLOUDY    47  43  86 NE8       30.11R
LACON*         CLOUDY    45  41  84 NE8       30.11R
LINCOLN*       CLOUDY    47  44  87 NE8       30.10S
SPRINGFIELD    CLOUDY    50  46  86 NE5       30.09R FOG
TAYLORVILLE    PTSUNNY   52  46  82 NE8       30.08F
$$

ILZ033-039-045-046-055>057-062-063-281600-
EAST-CENTRAL ILLINOIS

CITY           SKY/WX    TMP DP  RH WIND       PRES   REMARKS
CHAMPAIGN      CLOUDY    51  40  65 N12       30.07S
RANTOUL*       CLOUDY    47  40  78 NE13      30.09R
MATTOON        MOSUNNY   50  45  83 NE12      30.06R
PARIS*         MOSUNNY   50  45  83 N9        30.08R
$$

ILZ079-100>102-281600-
SOUTHWEST ILLINOIS

CITY           SKY/WX    TMP DP  RH WIND       PRES   REMARKS
ALTON          CLOUDY    52  48  87 VRB6      30.09R
BELLEVILLE     CLOUDY    54  54 100 NE9       30.07S
CAHOKIA*       CLOUDY    55  48  77 N7        30.08R
SPARTA*        CLOUDY    53  49  86 N8        30.08R
$$

ILZ064>066-069>071-074>076-080>082-084>086-088>090-092>094-281600-
SOUTH-CENTRAL ILLINOIS

CITY           SKY/WX    TMP DP  RH WIND       PRES   REMARKS
CARBONDALE     CLOUDY    54  51  90 N8        30.07R
CAIRO*         CLOUDY    56  52  85 N6        30.05S
EFFINGHAM*     CLOUDY    50  47  89 NW9       30.09R
MARION         CLOUDY    55  55 100 MISG      30.07R
MT. VERNON     CLOUDY    54  48  80 VRB6      30.07R
CENTRALIA*     CLOUDY    53  48  83 N9        30.07R
SALEM*         CLOUDY    53  47  81 N7        30.07R
METROPOLIS*    CLOUDY    57  52  84 N6        30.06R
$$

ILZ067-068-072-073-078-083-087-091-281600-
SOUTHEAST ILLINOIS

CITY           SKY/WX    TMP DP  RH WIND       PRES   REMARKS
LAWRENCEVILLE  PTSUNNY   57  51  80 N9        30.05R
FLORA*         CLOUDY    55  49  81 N8        30.06S
FAIRFIELD*     CLOUDY    53  49  84 N9        30.05S
HARRISBURG*    CLOUDY    54  51  90 N8        30.06R FOG
ROBINSON*      CLOUDY    50  46  87 N12       30.06R
CARMI*         CLOUDY    53  51  93 N9        30.05R FOG
$$

ABBREVIATIONS USED IN REMARKS
   TC - TEMPERATURE IN CELSIUS
  WCI - WIND CHILL INDEX
   HX - HEAT INDEX
  VSB - VISIBILITY
$$




USA.gov is the U.S. government's official web portal to all federal, state and local government web resources and services.